When you browse on this site, cookies collect data to enhance your experience and personalize the content and advertising you see.
Visit our Privacy Policy to learn more. By continuing to use the site, you agree to this use of cookies and data.
  • In Lithuania
  • List of Countries
  • For 7 days
  • Water Temperature
  • Weather Map
  • Weather Widgets
  • user-avatar
    Login

    Hourly Weather Rydwagi

    Today, 1 June, Monday

    Time Temperature Precipitation Wind Pressure Humidity
    00:00 +8°C° 0 mm 4 mps 752 mmHg 77%
    01:00 +8°C° 0 mm 4 mps 752 mmHg 78%
    02:00 +7°C° 0 mm 4 mps 752 mmHg 78%
    03:00 +6°C° 0 mm 4 mps 752 mmHg 78%
    04:00 +5°C° 0 mm 4 mps 752 mmHg 79%
    05:00 +7°C° 0 mm 4 mps 752 mmHg 74%
    06:00 +8°C° 0 mm 5 mps 752 mmHg 69%
    07:00 +10°C° 0 mm 6 mps 753 mmHg 62%
    08:00 +11°C° 0 mm 6 mps 753 mmHg 60%
    09:00 +12°C° 0 mm 7 mps 753 mmHg 58%
    10:00 +14°C° 0 mm 7 mps 753 mmHg 56%
    11:00 +14°C° 0 mm 6 mps 753 mmHg 57%
    12:00 +15°C° 0 mm 6 mps 752 mmHg 58%
    13:00 +15°C° 0 mm 6 mps 752 mmHg 59%
    14:00 +15°C° 0.1 mm 5 mps 752 mmHg 64%
    15:00 +14°C° 0.1 mm 5 mps 751 mmHg 68%
    16:00 +14°C° 0.1 mm 5 mps 751 mmHg 73%
    17:00 +13°C° 0.1 mm 4 mps 751 mmHg 76%
    18:00 +12°C° 0.1 mm 4 mps 750 mmHg 79%
    19:00 +11°C° 0.1 mm 3 mps 750 mmHg 82%
    20:00 +10°C° 0.1 mm 3 mps 750 mmHg 85%
    21:00 +9°C° 0.1 mm 3 mps 750 mmHg 88%
    22:00 +9°C° 0.1 mm 3 mps 750 mmHg 91%
    23:00 +8°C° 0 mm 3 mps 750 mmHg 93%

    Tomorrow, 2 June, Tuesday

    Time Temperature Precipitation Wind Pressure Humidity
    00:00 +7°C° 0 mm 3 mps 750 mmHg 94%
    01:00 +7°C° 0 mm 3 mps 750 mmHg 95%
    02:00 +5°C° 0 mm 3 mps 749 mmHg 95%
    03:00 +5°C° 0 mm 3 mps 749 mmHg 94%
    04:00 +4°C° 0 mm 3 mps 749 mmHg 94%
    05:00 +7°C° 0 mm 3 mps 749 mmHg 88%
    06:00 +8°C° 0 mm 3 mps 749 mmHg 82%
    07:00 +10°C° 0 mm 4 mps 749 mmHg 76%
    08:00 +12°C° 0 mm 4 mps 749 mmHg 71%
    09:00 +13°C° 0 mm 5 mps 749 mmHg 65%
    10:00 +14°C° 0 mm 5 mps 748 mmHg 59%
    11:00 +15°C° 0 mm 5 mps 748 mmHg 59%
    12:00 +15°C° 0 mm 5 mps 748 mmHg 59%
    13:00 +16°C° 0 mm 5 mps 747 mmHg 59%
    14:00 +16°C° 0 mm 5 mps 747 mmHg 60%
    15:00 +16°C° 0 mm 5 mps 746 mmHg 62%
    16:00 +16°C° 0 mm 5 mps 746 mmHg 63%
    17:00 +14°C° 0.1 mm 5 mps 746 mmHg 69%
    18:00 +13°C° 0.1 mm 4 mps 745 mmHg 75%
    19:00 +11°C° 0.1 mm 4 mps 745 mmHg 82%
    20:00 +10°C° 0 mm 3 mps 745 mmHg 85%
    21:00 +9°C° 0 mm 3 mps 745 mmHg 88%
    22:00 +7°C° 0 mm 3 mps 745 mmHg 91%
    23:00 +7°C° 0 mm 3 mps 744 mmHg 92%

    Day after tomorrow, 3 June, Wednesday

    Time Temperature Precipitation Wind Pressure Humidity
    00:00 +5°C° 0 mm 3 mps 744 mmHg 92%
    01:00 +6°C° 0 mm 2 mps 744 mmHg 93%
    02:00 +6°C° 0 mm 2 mps 743 mmHg 93%
    03:00 +5°C° 0 mm 2 mps 743 mmHg 93%
    04:00 +5°C° 0 mm 2 mps 742 mmHg 93%
    05:00 +7°C° 0 mm 2 mps 742 mmHg 89%
    06:00 +8°C° 0 mm 2 mps 742 mmHg 85%
    07:00 +10°C° 0 mm 3 mps 742 mmHg 82%
    08:00 +10°C° 0.1 mm 3 mps 742 mmHg 82%
    09:00 +11°C° 0.1 mm 3 mps 742 mmHg 82%
    10:00 +11°C° 0.1 mm 3 mps 742 mmHg 83%
    11:00 +11°C° 0.1 mm 4 mps 742 mmHg 83%
    12:00 +12°C° 0.1 mm 4 mps 742 mmHg 84%
    13:00 +12°C° 0.1 mm 4 mps 741 mmHg 85%
    14:00 +13°C° 0.1 mm 4 mps 741 mmHg 81%
    15:00 +14°C° 0.1 mm 4 mps 741 mmHg 77%
    16:00 +15°C° 0.1 mm 4 mps 740 mmHg 73%
    17:00 +14°C° 0.2 mm 4 mps 740 mmHg 78%
    18:00 +13°C° 0.2 mm 3 mps 740 mmHg 83%
    19:00 +12°C° 0.2 mm 3 mps 740 mmHg 88%
    20:00 +12°C° 0.2 mm 2 mps 740 mmHg 91%
    21:00 +10°C° 0.2 mm 2 mps 740 mmHg 93%
    22:00 +9°C° 0.2 mm 2 mps 740 mmHg 95%
    23:00 +8°C° 0 mm 2 mps 739 mmHg 95%

    4 June, Thursday

    Time Temperature Precipitation Wind Pressure Humidity
    00:00 +8°C° 0 mm 2 mps 739 mmHg 96%
    01:00 +8°C° 0 mm 2 mps 739 mmHg 96%
    02:00 +7°C° 0 mm 2 mps 739 mmHg 96%
    03:00 +7°C° 0 mm 2 mps 738 mmHg 96%
    04:00 +7°C° 0 mm 2 mps 738 mmHg 97%
    05:00 +9°C° 0 mm 2 mps 738 mmHg 93%
    06:00 +12°C° 0 mm 2 mps 738 mmHg 89%
    07:00 +13°C° 0 mm 2 mps 738 mmHg 85%
    08:00 +14°C° 0.4 mm 2 mps 738 mmHg 80%
    09:00 +16°C° 0.4 mm 2 mps 738 mmHg 75%
    10:00 +17°C° 0.4 mm 2 mps 737 mmHg 70%
    11:00 +17°C° 0.3 mm 2 mps 737 mmHg 67%
    12:00 +18°C° 0.3 mm 2 mps 737 mmHg 64%
    13:00 +18°C° 0.3 mm 2 mps 737 mmHg 62%
    14:00 +19°C° 0.1 mm 2 mps 737 mmHg 62%
    15:00 +19°C° 0.1 mm 2 mps 737 mmHg 62%
    16:00 +19°C° 0.1 mm 2 mps 736 mmHg 62%
    17:00 +18°C° 0 mm 2 mps 736 mmHg 68%
    18:00 +16°C° 0 mm 2 mps 736 mmHg 75%
    19:00 +15°C° 0 mm 2 mps 736 mmHg 81%
    20:00 +14°C° 0 mm 2 mps 736 mmHg 84%
    21:00 +13°C° 0 mm 2 mps 736 mmHg 88%
    22:00 +11°C° 0 mm 1 mps 736 mmHg 91%
    23:00 +10°C° 0 mm 2 mps 736 mmHg 91%

    5 June, Friday

    Time Temperature Precipitation Wind Pressure Humidity
    00:00 +10°C° 0 mm 2 mps 736 mmHg 91%
    01:00 +9°C° 0 mm 2 mps 736 mmHg 91%
    02:00 +9°C° 0 mm 2 mps 736 mmHg 92%
    03:00 +9°C° 0 mm 2 mps 736 mmHg 93%
    04:00 +9°C° 0 mm 3 mps 735 mmHg 94%
    05:00 +11°C° 0 mm 3 mps 735 mmHg 88%
    06:00 +13°C° 0 mm 4 mps 735 mmHg 83%
    07:00 +15°C° 0 mm 4 mps 735 mmHg 77%
    08:00 +16°C° 0 mm 5 mps 735 mmHg 72%
    09:00 +17°C° 0 mm 5 mps 735 mmHg 66%
    10:00 +20°C° 0 mm 6 mps 735 mmHg 61%
    11:00 +20°C° 0 mm 6 mps 735 mmHg 62%
    12:00 +21°C° 0 mm 6 mps 734 mmHg 64%
    13:00 +22°C° 0 mm 6 mps 734 mmHg 65%
    14:00 +21°C° 0.3 mm 6 mps 734 mmHg 70%
    15:00 +21°C° 0.3 mm 6 mps 734 mmHg 75%
    16:00 +21°C° 0.3 mm 6 mps 733 mmHg 79%
    17:00 +20°C° 0.5 mm 5 mps 733 mmHg 83%
    18:00 +19°C° 0.5 mm 4 mps 733 mmHg 87%
    19:00 +18°C° 0.5 mm 4 mps 733 mmHg 90%
    20:00 +18°C° 0.6 mm 3 mps 734 mmHg 92%
    21:00 +17°C° 0.6 mm 3 mps 734 mmHg 94%
    22:00 +17°C° 0.6 mm 3 mps 734 mmHg 96%
    23:00 +16°C° 0.4 mm 3 mps 734 mmHg 96%

    6 June, Saturday

    Time Temperature Precipitation Wind Pressure Humidity
    00:00 +14°C° 0.4 mm 3 mps 734 mmHg 97%
    01:00 +13°C° 0.4 mm 3 mps 734 mmHg 97%
    02:00 +13°C° 0.2 mm 4 mps 735 mmHg 97%
    03:00 +12°C° 0.2 mm 4 mps 735 mmHg 96%
    04:00 +10°C° 0.2 mm 5 mps 735 mmHg 96%
    05:00 +10°C° 1.4 mm 5 mps 736 mmHg 96%
    06:00 +9°C° 1.4 mm 5 mps 736 mmHg 96%
    07:00 +9°C° 1.4 mm 5 mps 737 mmHg 96%
    08:00 +9°C° 1.2 mm 5 mps 737 mmHg 96%
    09:00 +9°C° 1.2 mm 5 mps 737 mmHg 95%
    10:00 +10°C° 1.2 mm 4 mps 738 mmHg 95%
    11:00 +11°C° 0.6 mm 4 mps 738 mmHg 93%
    12:00 +11°C° 0.6 mm 3 mps 739 mmHg 90%
    13:00 +12°C° 0.6 mm 3 mps 739 mmHg 88%
    14:00 +12°C° 0.1 mm 3 mps 739 mmHg 85%
    15:00 +13°C° 0.1 mm 3 mps 740 mmHg 83%
    16:00 +15°C° 0.1 mm 2 mps 740 mmHg 80%
    17:00 +14°C° 0.1 mm 2 mps 740 mmHg 83%
    18:00 +13°C° 0.1 mm 2 mps 740 mmHg 86%
    19:00 +13°C° 0.1 mm 2 mps 740 mmHg 89%
    20:00 +12°C° 0 mm 1 mps 741 mmHg 90%
    21:00 +10°C° 0 mm 1 mps 741 mmHg 91%
    22:00 +9°C° 0 mm 1 mps 742 mmHg 92%
    23:00 +9°C° 0 mm 1 mps 742 mmHg 92%
    Show more